DW7093 Weather Reports


time (UTC)temp
C
wind
direction
speed
KPH
gust
KPH
rain 1hr
cm
rain 24hr
cm
rain mn
cm
humidity
%
barometer
mb
20260903010053 27 325 0.0 0.0 0.00 0.00 0.00 100 1012.5
20260903004552 27 325 0.0 1.6 0.00 0.00 0.00 100 1012.5
20260903003054 27 360 0.0 0.0 0.00 0.00 0.00 100 1012.3
20260903001552 28 360 0.0 0.0 0.00 0.00 0.00 100 1012.3
20260903000051 28 360 0.0 0.0 0.00 0.00 0.00 100 1012.4
20260902234550 30 360 0.0 3.2 0.00 0.00 0.00 100 1012.4
20260902233050 30 300 0.0 0.0 0.00 0.00 0.00 100 1012.4
20260902231558 31 300 0.0 0.0 0.00 0.00 0.00 100 1012.5
20260902230047 32 220 0.0 8.0 0.00 0.00 0.00 100 1012.5
20260902224546 32 252 0.0 9.7 0.00 0.00 0.00 100 1012.6
20260902223047 32 259 1.6 9.7 0.00 0.00 0.00 100 1012.5
20260902221553 33 248 0.0 3.2 0.00 0.00 0.00 100 1012.5
20260902220045 33 313 0.0 11.3 0.00 0.00 0.00 100 1012.6
20260902214547 33 129 0.0 4.8 0.00 0.00 0.00 100 1012.6
20260902213050 33 109 0.0 12.9 0.00 0.00 0.00 100 1012.7
20260902211547 33 300 0.0 4.8 0.00 0.00 0.00 100 1012.7
20260902210041 33 281 1.6 11.3 0.00 0.00 0.00 100 1012.7
20260902204639 33 284 0.0 6.4 0.00 0.00 0.00 100 1012.8
20260902203045 33 234 1.6 14.5 0.00 0.00 0.00 100 1013.0
20260902201536 33 306 1.6 9.7 0.00 0.00 0.00 100 1013.0
20260902200034 33 219 1.6 9.7 0.00 0.00 0.00 100 1013.2
20260902194535 33 277 3.2 11.3 0.00 0.00 0.00 100 1013.3
20260902193035 33 238 0.0 9.7 0.00 0.00 0.00 100 1013.4
20260902191531 33 236 0.0 11.3 0.00 0.00 0.00 100 1013.5
20260902190030 33 161 1.6 4.8 0.00 0.00 0.00 100 1013.5
20260902184530 33 5 0.0 6.4 0.00 0.00 0.00 100 1013.6
20260902183029 33 146 0.0 9.7 0.00 0.00 0.00 100 1013.5
20260902181526 33 232 0.0 6.4 0.00 0.00 0.00 100 1013.7
20260902180024 33 148 0.0 8.0 0.00 0.00 0.00 100 1013.8
20260902174524 33 97 0.0 4.8 0.00 0.00 0.00 100 1014.1
20260902173021 33 143 0.0 4.8 0.00 0.00 0.00 100 1014.2
20260902171520 33 254 0.0 9.7 0.00 0.00 0.00 100 1014.4
20260902170017 33 294 0.0 3.2 0.00 0.00 0.00 100 1014.5
20260902164514 32 298 0.0 0.0 0.00 0.03 0.00 100 1014.5
20260902163013 32 315 1.6 11.3 0.00 0.03 0.00 100 1014.6
20260902161511 32 190 0.0 6.4 0.00 0.03 0.00 100 1014.8
20260902160015 31 251 1.6 8.0 0.00 0.03 0.00 100 1015.0
20260902154505 31 321 1.6 9.7 0.00 0.03 0.00 100 1015.0
20260902153006 31 281 0.0 6.4 0.00 0.03 0.00 100 1015.0
20260902151501 30 313 1.6 8.0 0.00 0.03 0.00 100 1015.1
20260902150059 30 327 0.0 8.0 0.00 0.03 0.00 100 1015.0
20260902144559 30 268 0.0 4.8 0.00 0.08 0.00 100 1015.1
20260902143056 28 265 1.6 6.4 0.00 0.08 0.00 100 1015.1
20260902141552 28 275 0.0 1.6 0.00 0.08 0.00 100 1015.0
20260902140051 27 276 0.0 8.0 0.00 0.08 0.00 100 1014.9
20260902134545 27 318 0.0 12.9 0.00 0.15 0.00 100 1015.0
20260902133040 26 236 0.0 11.3 0.00 0.15 0.00 100 1015.1
20260902131537 25 265 0.0 3.2 0.00 0.15 0.00 100 1015.2
20260902130034 24 268 1.6 4.8 0.00 0.15 0.00 100 1015.3
20260902124534 23 211 0.0 1.6 0.00 0.20 0.00 100 1015.4
20260902123033 22 253 0.0 3.2 0.00 0.20 0.00 100 1015.4
20260902121532 22 288 0.0 3.2 0.00 0.20 0.00 100 1015.5
20260902120032 21 274 0.0 1.6 0.00 0.20 0.00 100 1015.4
20260902114603 21 274 0.0 1.6 0.00 0.25 0.00 100 1015.3
20260902113029 21 277 0.0 0.0 0.00 0.25 0.00 100 1015.2
20260902111528 21 277 0.0 0.0 0.00 0.25 0.00 100 1015.1
20260902110026 21 277 0.0 0.0 0.00 0.25 0.00 100 1015.1
20260902104525 21 277 0.0 0.0 0.00 0.25 0.00 100 1015.0
20260902103022 22 277 0.0 0.0 0.00 0.25 0.00 100 1014.9
20260902101521 22 277 0.0 0.0 0.00 0.25 0.00 100 1014.7
20260902100021 22 277 0.0 0.0 0.00 0.25 0.00 100 1014.7
20260902094519 22 277 0.0 3.2 0.00 0.25 0.00 100 1014.6
20260902093023 22 275 0.0 0.0 0.00 0.25 0.00 100 1014.5
20260902091518 22 275 0.0 0.0 0.00 0.25 0.00 100 1014.5
20260902090020 22 275 0.0 0.0 0.00 0.25 0.00 100 1014.4
20260902084519 22 275 0.0 3.2 0.00 0.25 0.00 100 1014.4
20260902083019 22 355 0.0 0.0 0.00 0.25 0.00 100 1014.5
20260902081515 22 355 0.0 0.0 0.00 0.25 0.00 100 1014.5
20260902080013 22 355 0.0 0.0 0.00 0.25 0.00 100 1014.6
20260902074517 22 355 0.0 0.0 0.00 0.25 0.00 100 1014.5
20260902073011 23 355 0.0 0.0 0.00 0.25 0.00 100 1014.5
20260902071509 23 355 0.0 0.0 0.00 0.25 0.00 100 1014.4
20260902070008 23 355 0.0 0.0 0.00 0.25 0.00 100 1014.3
20260902064507 23 260 0.0 0.0 0.00 0.25 0.00 100 1014.3
20260902063006 23 256 0.0 1.6 0.00 0.25 0.00 100 1014.3
20260902061509 23 256 0.0 0.0 0.00 0.25 0.00 100 1014.4
20260902060001 23 256 0.0 0.0 0.00 0.25 0.00 100 1014.4
20260902054600 24 256 0.0 1.6 0.00 0.25 0.00 100 1014.5
20260902053104 24 248 0.0 1.6 0.00 0.25 0.00 100 1014.5
20260902051558 24 248 0.0 3.2 0.00 0.25 0.00 100 1014.5
20260902050057 24 285 0.0 1.6 0.00 0.25 0.00 100 1014.5
20260902044557 24 271 0.0 1.6 0.00 0.25 0.00 100 1014.4
20260902043055 24 271 0.0 4.8 0.00 0.25 0.00 100 1014.4
20260902041606 24 309 0.0 0.0 0.00 0.25 0.00 100 1014.3
20260902040051 25 244 0.0 0.0 0.00 0.25 0.00 100 1014.3
20260902034551 25 56 0.0 1.6 0.00 0.25 0.25 100 1014.3
20260902033051 25 263 0.0 3.2 0.00 0.25 0.25 100 1014.3
20260902031551 25 94 0.0 1.6 0.00 0.25 0.25 100 1014.3
20260902030049 25 94 0.0 3.2 0.00 0.25 0.25 100 1014.2
20260902024558 25 63 0.0 1.6 0.00 0.25 0.25 100 1014.2
20260902023100 25 63 0.0 1.6 0.00 0.25 0.25 100 1014.2
20260902021555 24 63 0.0 0.0 0.00 0.25 0.25 100 1014.2
20260902020049 24 63 0.0 0.0 0.00 0.25 0.25 100 1014.3
20260902014647 25 63 0.0 1.6 0.00 0.25 0.25 100 1014.2
20260902013046 25 64 0.0 0.0 0.00 0.25 0.25 100 1014.3